AA0FC Weather Reports


time (UTC)temp
F
wind
direction
speed
knots
gust
knots
rain 1hr
in
rain 24hr
in
rain mn
in
humidity
%
barometer
mb
20260906222135 91 318 2.6 6.1 0.00 0.00 0.00 32 1015.4
20260906221906 91 4 3.5 7.8 0.00 0.00 0.00 31 1015.5
20260906221403 91 24 4.3 7.8 0.00 0.00 0.00 31 1015.7
20260906220630 91 8 3.5 7.0 0.00 0.00 0.00 32 1015.8
20260906220127 91 22 2.6 7.0 0.00 0.00 0.00 31 1015.9
20260906215625 91 326 2.6 6.1 0.00 0.00 0.00 31 1016.0
20260906215123 91 305 2.6 6.1 0.00 0.00 0.00 31 1016.0
20260906214623 91 94 1.7 6.1 0.00 0.00 0.00 31 1016.1
20260906214122 91 5 0.9 3.5 0.00 0.00 0.00 31 1016.0
20260906213623 91 24 2.6 7.0 0.00 0.00 0.00 32 1016.1
20260906213123 90 160 4.3 8.7 0.00 0.00 0.00 32 1016.2
20260906212852 91 4 5.2 10.4 0.00 0.00 0.00 32 1016.2
20260906212121 91 23 4.3 10.4 0.00 0.00 0.00 32 1016.2
20260906211619 91 22 2.6 7.8 0.00 0.00 0.00 32 1016.2
20260906211119 91 14 3.5 7.8 0.00 0.00 0.00 33 1016.5
20260906210617 91 10 3.5 8.7 0.00 0.00 0.00 33 1016.5
20260906210117 91 22 2.6 8.7 0.00 0.00 0.00 32 1016.6
20260906205616 91 270 2.6 8.7 0.00 0.00 0.00 33 1016.7
20260906205346 91 22 3.5 8.7 0.00 0.00 0.00 31 1016.7
20260906204615 91 14 3.5 8.7 0.00 0.00 0.00 33 1016.7
20260906204113 91 236 2.6 8.7 0.00 0.00 0.00 33 1016.7
20260906203611 91 55 1.7 5.2 0.00 0.00 0.00 34 1016.7
20260906203111 90 1 1.7 5.2 0.00 0.00 0.00 33 1016.7
20260906202610 90 19 1.7 5.2 0.00 0.00 0.00 31 1016.8
20260906202109 91 6 1.7 4.3 0.00 0.00 0.00 34 1017.1
20260906201608 90 12 1.7 7.0 0.00 0.00 0.00 34 1017.1
20260906201604 89 61 2.6 7.0 0.00 0.00 0.00 34 1017.1
20260906200603 89 29 2.6 9.6 0.00 0.00 0.00 34 1017.2
20260906200332 89 5 2.6 9.6 0.00 0.00 0.00 35 1017.3
20260906195600 88 4 2.6 9.6 0.00 0.00 0.00 34 1017.4
20260906195059 88 6 3.5 9.6 0.00 0.00 0.00 34 1017.5
20260906194830 88 11 3.5 7.0 0.00 0.00 0.00 34 1017.4
20260906194056 88 305 2.6 7.0 0.00 0.00 0.00 34 1017.5
20260906193557 88 15 1.7 5.2 0.00 0.00 0.00 34 1017.5
20260906193031 88 21 1.7 5.2 0.00 0.00 0.00 35 1017.5
20260906192529 88 1 2.6 6.1 0.00 0.00 0.00 35 1017.7
20260906192027 87 17 2.6 6.1 0.00 0.00 0.00 36 1017.8
20260906191527 87 15 1.7 6.1 0.00 0.00 0.00 37 1017.8
20260906191027 87 6 2.6 7.0 0.00 0.00 0.00 38 1017.8
20260906190524 86 68 3.5 7.0 0.00 0.00 0.00 39 1017.9
20260906190255 86 22 2.6 7.0 0.00 0.00 0.00 40 1018.0
20260906185523 86 40 2.6 6.1 0.00 0.00 0.00 40 1018.1
20260906185023 85 20 2.6 6.1 0.00 0.00 0.00 40 1018.2
20260906184748 85 22 2.6 6.1 0.00 0.00 0.00 40 1018.5
20260906184017 85 20 2.6 7.0 0.00 0.00 0.00 42 1018.7
20260906183515 85 12 2.6 7.0 0.00 0.00 0.00 41 1018.7
20260906183015 85 12 2.6 6.1 0.00 0.00 0.00 43 1018.8
20260906182513 85 16 1.7 7.0 0.00 0.00 0.00 45 1018.8
20260906182013 84 320 1.7 7.0 0.00 0.00 0.00 46 1018.9
20260906181511 84 10 0.9 4.3 0.00 0.00 0.00 46 1019.1
20260906181011 84 78 0.9 3.5 0.00 0.00 0.00 45 1019.1
20260906180508 83 78 0.9 5.2 0.00 0.00 0.00 48 1019.1
20260906180008 83 31 1.7 5.2 0.00 0.00 0.00 47 1019.2
20260906175507 82 31 2.6 6.1 0.00 0.00 0.00 48 1019.3
20260906175004 82 21 1.7 6.1 0.00 0.00 0.00 49 1019.4
20260906174502 81 313 1.7 5.2 0.00 0.00 0.00 49 1019.5
20260906174234 81 18 2.6 4.3 0.00 0.00 0.00 49 1019.8
20260906173731 81 335 1.7 5.2 0.00 0.00 0.00 50 1019.9
20260906173000 80 3 0.9 5.2 0.00 0.00 0.00 50 1020.0
20260906172503 79 81 0.9 3.5 0.00 0.00 0.00 52 1020.1
20260906172459 80 81 0.9 1.7 0.00 0.00 0.00 52 1020.0
20260906171456 79 81 0.9 3.5 0.00 0.00 0.00 54 1020.2
20260906171227 79 286 1.7 4.3 0.00 0.00 0.00 54 1020.2
20260906170455 78 3 0.9 4.3 0.00 0.00 0.00 54 1020.6
20260906165954 78 5 0.9 4.3 0.00 0.00 0.00 56 1020.7
20260906165457 76 56 1.7 7.0 0.00 0.00 0.00 59 1020.7
20260906165453 77 76 0.9 4.3 0.00 0.00 0.00 58 1020.8
20260906164721 76 6 1.7 7.0 0.00 0.00 0.00 58 1020.8
20260906163950 75 314 2.6 5.2 0.00 0.00 0.00 59 1020.9
20260906163450 75 29 2.6 6.1 0.00 0.00 0.00 59 1020.8
20260906162948 75 17 2.6 6.1 0.00 0.00 0.00 60 1020.8
20260906162720 74 17 1.7 5.2 0.00 0.00 0.00 61 1020.7
20260906161948 74 29 0.9 5.2 0.00 0.00 0.00 61 1020.8
20260906161449 74 297 0.9 4.3 0.00 0.00 0.00 62 1020.8
20260906160948 74 8 1.7 4.3 0.00 0.00 0.00 61 1020.8
20260906160717 74 8 1.7 4.3 0.00 0.00 0.00 62 1020.7
20260906155946 74 308 1.7 5.2 0.00 0.00 0.00 62 1020.7
20260906155444 73 20 1.7 5.2 0.00 0.00 0.00 62 1020.7
20260906154936 73 20 1.7 5.2 0.00 0.00 0.00 64 1020.7
20260906154437 73 322 1.7 5.2 0.00 0.00 0.00 64 1020.7
20260906154206 72 18 1.7 6.1 0.00 0.00 0.00 64 1020.7
20260906153434 72 1 1.7 6.1 0.00 0.00 0.00 66 1020.8
20260906153204 71 5 1.7 4.3 0.00 0.00 0.00 67 1020.7
20260906152430 71 3 1.7 5.2 0.00 0.00 0.00 67 1020.7
20260906151928 71 16 1.7 5.2 0.00 0.00 0.00 67 1020.8
20260906151426 71 5 1.7 5.2 0.00 0.00 0.00 68 1020.8
20260906150919 70 8 1.7 5.2 0.00 0.00 0.00 69 1020.8
20260906150418 69 1 2.6 5.2 0.00 0.00 0.00 70 1020.9
20260906145918 69 313 1.7 5.2 0.00 0.00 0.00 71 1021.0
20260906145416 68 20 1.7 5.2 0.00 0.00 0.00 73 1020.9
20260906144914 67 33 1.7 5.2 0.00 0.00 0.00 74 1020.8
20260906144412 67 21 1.7 4.3 0.00 0.00 0.00 75 1020.8
20260906143911 66 13 1.7 4.3 0.00 0.00 0.00 74 1020.9
20260906143409 66 316 2.6 6.1 0.00 0.00 0.00 75 1020.9
20260906142910 66 329 2.6 6.1 0.00 0.00 0.00 75 1021.0
20260906142410 66 22 2.6 6.1 0.00 0.00 0.00 76 1020.9
20260906141910 65 318 2.6 7.0 0.00 0.00 0.00 77 1020.9
20260906141408 65 16 2.6 7.0 0.00 0.00 0.00 77 1020.8
20260906141140 65 326 2.6 4.3 0.00 0.00 0.00 78 1020.8
20260906141012 64 34 1.7 4.3 0.00 0.00 0.00 78 1020.7
20260906135904 64 268 1.7 5.2 0.00 0.00 0.00 78 1020.7
20260906135404 63 300 1.7 6.1 0.00 0.00 0.00 79 1020.7
20260906135133 63 289 1.7 6.1 0.00 0.00 0.00 79 1020.7
20260906134633 63 305 0.9 4.3 0.00 0.00 0.00 79 1020.7
20260906134134 62 325 0.9 4.3 0.00 0.00 0.00 79 1020.7
20260906133400 62 325 0.9 1.7 0.00 0.00 0.00 79 1020.8
20260906132900 62 326 0.9 3.5 0.00 0.00 0.00 79 1020.7
20260906132359 61 325 0.9 3.5 0.00 0.00 0.00 79 1020.7
20260906131858 61 20 0.9 3.5 0.00 0.00 0.00 79 1020.7
20260906131629 61 20 0.0 3.5 0.00 0.00 0.00 78 1020.6
20260906131126 60 325 0.0 1.7 0.00 0.00 0.00 77 1020.7
20260906130352 60 20 0.0 1.7 0.00 0.00 0.00 77 1020.6
20260906125852 60 327 0.0 0.9 0.00 0.00 0.00 76 1020.7
20260906125350 60 327 0.0 0.9 0.00 0.00 0.00 76 1020.6
20260906124851 60 326 0.0 0.9 0.00 0.00 0.00 76 1020.3
20260906124348 60 327 0.0 0.0 0.00 0.00 0.00 76 1020.3
20260906123848 60 20 0.0 0.0 0.00 0.00 0.00 75 1020.3
20260906123345 60 326 0.0 0.0 0.00 0.00 0.00 75 1020.3
20260906122846 61 20 0.0 0.0 0.00 0.00 0.00 75 1020.5
20260906122346 61 327 0.0 0.0 0.00 0.00 0.00 75 1020.5
20260906121846 61 326 0.0 0.0 0.00 0.00 0.00 75 1020.5
20260906121340 61 327 0.0 0.0 0.00 0.00 0.00 75 1020.2
20260906120840 61 327 0.0 0.9 0.00 0.00 0.00 75 1020.2
20260906120614 61 20 0.0 0.9 0.00 0.00 0.00 74 1020.3
20260906120338 61 327 0.0 0.9 0.00 0.00 0.00 75 1020.2
20260906115336 61 326 0.0 1.7 0.00 0.00 0.00 74 1020.3
20260906114836 61 20 0.0 1.7 0.00 0.00 0.00 74 1020.3
20260906114334 61 326 0.0 1.7 0.00 0.00 0.00 74 1020.2
20260906113834 62 324 0.9 1.7 0.00 0.00 0.00 73 1020.2
20260906113333 62 324 0.0 1.7 0.00 0.00 0.00 73 1020.2
20260906112833 62 20 0.0 1.7 0.00 0.00 0.00 73 1020.3
20260906112330 62 324 0.0 0.9 0.00 0.00 0.00 73 1020.2
20260906111830 62 20 0.0 0.9 0.00 0.00 0.00 73 1020.2
20260906111328 62 324 0.0 1.7 0.00 0.00 0.00 73 1020.1
20260906110826 62 20 0.0 1.7 0.00 0.00 0.00 73 1020.0
20260906110325 62 325 0.9 5.2 0.00 0.00 0.00 73 1020.0
20260906105824 62 20 0.9 5.2 0.00 0.00 0.00 73 1020.0
20260906105324 62 20 0.0 1.7 0.00 0.00 0.00 72 1020.1
20260906104823 62 335 0.0 1.7 0.00 0.00 0.00 72 1020.2
20260906104322 62 3 0.0 1.7 0.00 0.00 0.00 72 1020.0
20260906103822 63 3 0.0 0.9 0.00 0.00 0.00 72 1019.9
20260906103321 63 1 0.0 0.9 0.00 0.00 0.00 72 1019.8
20260906102816 63 20 0.0 0.9 0.00 0.00 0.00 71 1019.9
20260906102314 63 2 0.0 1.7 0.00 0.00 0.00 71 1019.9
20260906101815 64 1 0.0 0.9 0.00 0.00 0.00 70 1019.9
20260906101811 63 1 0.0 1.7 0.00 0.00 0.00 70 1019.9
20260906100812 64 5 0.0 0.0 0.00 0.00 0.00 70 1019.8
20260906100542 64 1 0.0 0.9 0.00 0.00 0.00 68 1019.6
20260906100415 64 2 0.0 0.9 0.00 0.00 0.00 68 1019.8
20260906095312 65 3 0.0 0.0 0.00 0.00 0.00 68 1019.8
20260906094812 65 0 0.0 0.0 0.00 0.00 0.00 67 1019.8
20260906094310 65 1 0.0 0.9 0.00 0.00 0.00 67 1019.9
20260906093809 65 1 0.0 0.9 0.00 0.00 0.00 67 1019.9
20260906093308 65 2 0.0 1.7 0.00 0.00 0.00 65 1020.0
20260906092808 66 7 0.0 1.7 0.00 0.00 0.00 65 1019.8
20260906092246 67 7 0.0 0.9 0.00 0.00 0.00 62 1019.5
20260906092242 66 7 0.0 1.7 0.00 0.00 0.00 64 1019.6
20260906091740 66 7 0.0 1.7 0.00 0.00 0.00 63 1019.5
20260906090738 67 7 0.0 1.7 0.00 0.00 0.00 61 1019.4
20260906090238 67 7 0.0 1.7 0.00 0.00 0.00 60 1019.4
20260906085735 68 7 0.0 1.7 0.00 0.00 0.00 60 1019.3
20260906085236 68 7 0.9 3.5 0.00 0.00 0.00 59 1019.3
20260906084734 68 8 1.7 3.5 0.00 0.00 0.00 57 1019.3
20260906084233 69 331 1.7 5.2 0.00 0.00 0.00 56 1019.2
20260906083728 69 30 1.7 5.2 0.00 0.00 0.00 55 1019.2
20260906083227 69 18 0.9 4.3 0.00 0.00 0.00 53 1019.2
20260906082726 69 2 0.0 3.5 0.00 0.00 0.00 52 1019.2
20260906082226 69 2 0.9 5.2 0.00 0.00 0.00 51 1019.2
20260906081723 69 2 1.7 6.1 0.00 0.00 0.00 51 1018.9
20260906081223 69 31 2.6 7.8 0.00 0.00 0.00 51 1019.1
20260906080722 69 43 3.5 7.8 0.00 0.00 0.00 52 1018.9
20260906080219 68 330 2.6 7.0 0.00 0.00 0.00 52 1018.9
20260906075950 68 317 1.7 5.2 0.00 0.00 0.00 52 1018.9
20260906075220 68 276 0.9 5.2 0.00 0.00 0.00 53 1018.9
20260906074717 68 304 0.9 5.2 0.00 0.00 0.00 53 1018.9
20260906074218 69 4 0.0 0.0 0.00 0.00 0.00 53 1018.9
20260906073715 69 4 0.0 0.0 0.00 0.00 0.00 52 1018.9
20260906073215 69 3 0.0 0.0 0.00 0.00 0.00 52 1018.9
20260906072714 70 3 0.0 0.0 0.00 0.00 0.00 51 1019.1
20260906072218 70 3 0.0 0.0 0.00 0.00 0.00 50 1019.1
20260906072214 70 3 0.0 0.0 0.00 0.00 0.00 50 1019.1
20260906071212 70 4 0.0 0.0 0.00 0.00 0.00 51 1018.9
20260906070710 70 4 0.0 0.0 0.00 0.00 0.00 53 1018.9
20260906070205 71 4 0.0 0.0 0.00 0.00 0.00 53 1018.9
20260906065704 71 4 0.0 0.0 0.00 0.00 0.00 54 1019.1
20260906065204 71 4 0.0 0.0 0.00 0.00 0.00 54 1019.1
20260906064934 71 4 0.0 0.0 0.00 0.00 0.00 53 1019.1
20260906064203 71 4 0.0 0.0 0.00 0.00 0.00 49 1019.2
20260906063702 71 4 0.0 0.0 0.00 0.00 0.00 49 1019.2
20260906063158 71 4 0.0 0.0 0.00 0.00 0.00 48 1019.3
20260906062655 71 4 0.0 0.0 0.00 0.00 0.00 49 1019.4
20260906062156 72 4 0.0 0.0 0.00 0.00 0.00 48 1019.2
20260906061655 72 4 0.0 0.0 0.00 0.00 0.00 50 1019.2
20260906061155 72 4 0.0 0.0 0.00 0.00 0.00 50 1019.2
20260906060655 73 4 0.0 0.0 0.00 0.00 0.00 51 1019.1
20260906060153 73 4 0.0 0.0 0.00 0.00 0.00 52 1018.9
20260906055654 73 4 0.0 0.0 0.00 0.00 0.00 50 1018.7
20260906055424 73 4 0.0 0.0 0.00 0.00 0.00 48 1018.6
20260906055258 73 11 0.0 0.9 0.00 0.00 0.00 47 1018.9
20260906054152 73 245 0.0 0.9 0.00 0.00 0.00 43 1019.2
20260906053649 73 245 0.9 3.5 0.00 0.00 0.00 44 1019.4
20260906053149 73 20 0.9 3.5 0.00 0.00 0.00 43 1019.5
20260906052647 73 257 0.9 3.5 0.00 0.00 0.00 43 1019.8
20260906052145 73 20 0.0 0.9 0.00 0.00 0.00 43 1019.8
20260906051643 72 20 0.0 0.9 0.00 0.00 0.00 44 1019.9
20260906051144 72 20 0.9 1.7 0.00 0.00 0.00 44 1020.0
20260906050644 72 20 0.9 1.7 0.00 0.00 0.00 45 1020.0
20260906050141 72 20 0.9 1.7 0.00 0.00 0.00 46 1019.9
20260906045638 72 7 0.0 1.7 0.00 0.00 0.00 48 1019.5
20260906045139 72 7 0.0 0.9 0.00 0.00 0.00 48 1019.2
20260906044637 72 20 0.0 0.9 0.00 0.00 0.00 47 1019.1
20260906044135 72 20 0.0 1.7 0.00 0.00 0.00 46 1019.2
20260906043635 72 8 0.0 1.7 0.00 0.00 0.00 45 1019.2
20260906043133 72 8 0.9 1.7 0.00 0.00 0.00 44 1019.2
20260906042633 72 20 0.9 1.7 0.00 0.00 0.00 45 1019.1
20260906042131 72 7 0.9 1.7 0.00 0.00 0.00 44 1019.1
20260906041629 72 20 0.9 1.7 0.00 0.00 0.00 44 1018.9
20260906041128 72 20 0.0 1.7 0.00 0.00 0.00 44 1018.9
20260906040627 72 20 0.0 0.9 0.00 0.00 0.00 45 1018.8
20260906040125 73 15 0.0 3.5 0.00 0.00 0.00 44 1018.6
20260906035625 73 9 0.0 3.5 0.00 0.00 0.00 44 1018.5
20260906035124 73 29 0.0 0.9 0.00 0.00 0.00 44 1018.4
20260906034623 73 29 0.0 1.7 0.00 0.00 0.00 45 1018.0
20260906034119 73 28 0.0 1.7 0.00 0.00 0.00 44 1018.0
20260906033617 73 29 0.0 1.7 0.00 0.00 0.00 44 1018.0
20260906033344 73 29 0.0 1.7 0.00 0.00 0.00 45 1017.9
20260906032611 74 29 0.9 3.5 0.00 0.00 0.00 44 1018.0
20260906032111 74 29 0.9 3.5 0.00 0.00 0.00 44 1017.9
20260906031611 74 11 0.0 3.5 0.00 0.00 0.00 44 1017.9
20260906031111 75 20 0.9 3.5 0.00 0.00 0.00 44 1018.0
20260906030609 75 3 0.9 3.5 0.00 0.00 0.00 43 1017.9
20260906030109 75 331 0.9 3.5 0.00 0.00 0.00 42 1017.8
20260906025607 76 330 0.9 3.5 0.00 0.00 0.00 42 1017.7
20260906025107 76 297 0.9 1.7 0.00 0.00 0.00 40 1017.4
20260906024605 77 297 0.0 1.7 0.00 0.00 0.00 39 1017.3
20260906024105 77 297 0.0 0.0 0.00 0.00 0.00 39 1017.4
20260906023603 78 297 0.0 3.5 0.00 0.00 0.00 37 1017.3
20260906023334 78 20 0.0 3.5 0.00 0.00 0.00 37 1017.3
20260906022601 79 297 0.9 2.6 0.00 0.00 0.00 36 1017.2
20260906022055 79 297 0.9 4.3 0.00 0.00 0.00 35 1017.2
20260906021555 79 297 1.7 4.3 0.00 0.00 0.00 34 1017.3
20260906021055 79 318 1.7 5.2 0.00 0.00 0.00 33 1017.3
20260906020555 80 324 1.7 5.2 0.00 0.00 0.00 33 1017.3
20260906020055 80 296 1.7 4.3 0.00 0.00 0.00 33 1017.3
20260906015555 80 276 1.7 4.3 0.00 0.00 0.00 33 1017.3
20260906015055 80 256 1.7 4.3 0.00 0.00 0.00 33 1017.2
20260906014555 81 249 1.7 4.3 0.00 0.00 0.00 33 1017.2
20260906014059 82 313 1.7 4.3 0.00 0.00 0.00 33 1017.1
20260906014055 81 309 0.9 4.3 0.00 0.00 0.00 33 1017.3
20260906013053 82 309 1.7 6.1 0.00 0.00 0.00 31 1017.0
20260906012553 82 315 1.7 6.1 0.00 0.00 0.00 30 1017.0
20260906012053 83 309 1.7 6.1 0.00 0.00 0.00 30 1017.0
20260906011550 83 303 1.7 6.1 0.00 0.00 0.00 30 1017.1
20260906011051 83 20 1.7 4.3 0.00 0.00 0.00 30 1017.0
20260906010820 84 280 1.7 4.3 0.00 0.00 0.00 29 1017.0
20260906010049 84 310 1.7 4.3 0.00 0.00 0.00 29 1017.0
20260906005520 85 269 1.7 5.2 0.00 0.00 0.00 29 1017.1
20260906005021 85 300 1.7 6.1 0.00 0.00 0.00 29 1017.0
20260906004521 85 280 2.6 7.8 0.00 0.00 0.00 28 1017.1
20260906004019 86 311 2.6 8.7 0.00 0.00 0.00 28 1017.1
20260906003519 86 335 3.5 8.7 0.00 0.00 0.00 28 1017.1
20260906003019 86 320 3.5 7.8 0.00 0.00 0.00 27 1017.1
20260906002747 87 328 3.5 9.6 0.00 0.00 0.00 28 1017.0
20260906002017 87 320 2.6 9.6 0.00 0.00 0.00 28 1017.0
20260906001516 87 7 1.7 7.0 0.00 0.00 0.00 28 1017.0
20260906001245 87 330 0.9 4.3 0.00 0.00 0.00 29 1017.0
20260906000515 87 311 1.7 5.2 0.00 0.00 0.00 29 1016.8
20260906000013 87 308 0.9 5.2 0.00 0.00 0.00 28 1016.8
20260905235513 87 299 0.0 2.6 0.00 0.00 0.00 29 1017.0
20260905235007 87 299 0.0 3.5 0.00 0.00 0.00 28 1016.8
20260905234737 88 298 0.9 3.5 0.00 0.00 0.00 27 1016.8
20260905234005 88 297 0.9 5.2 0.00 0.00 0.00 28 1016.8
20260905233505 89 301 1.7 5.2 0.00 0.00 0.00 26 1016.8
20260905233002 89 20 0.9 4.3 0.00 0.00 0.00 26 1016.7
20260905232503 89 328 0.9 5.2 0.00 0.00 0.00 26 1016.7
20260905232231 90 294 1.7 5.2 0.00 0.00 0.00 24 1016.7
20260905231732 90 320 2.6 5.2 0.00 0.00 0.00 23 1016.7
20260905230959 90 302 1.7 4.3 0.00 0.00 0.00 25 1016.6
20260905230459 91 10 1.7 5.2 0.00 0.00 0.00 24 1016.6
20260905225957 91 23 1.7 5.2 0.00 0.00 0.00 25 1016.6
20260905225457 91 20 0.9 4.3 0.00 0.00 0.00 24 1016.5
20260905224956 92 15 0.9 5.2 0.00 0.00 0.00 23 1016.5
20260905224500 93 335 2.6 7.8 0.00 0.00 0.00 21 1016.5
20260905224456 92 8 1.7 5.2 0.00 0.00 0.00 21 1016.5
20260905223455 93 15 3.5 7.8 0.00 0.00 0.00 20 1016.5
20260905222954 93 28 4.3 8.7 0.00 0.00 0.00 20 1016.6
20260905222454 94 21 3.5 8.7 0.00 0.00 0.00 20 1016.5